Startpagina
METAR-TAF:

METAR-TAF

Vliegvelden :

Productieplatform

L9-ff-1, Nederland

breedte: 53-36-52N, lengte: 4-57-37E, hoogte: 30 m

Actueel weer

Dit bericht is 25 minuten geleden gemaakt, om 11:25 UTC
Wind 35 kt uit het zuidzuidwesten
Temperatuur 18°C
Vochtigheid 88%
Druk 1012 hPa
Zicht 10 km of meer

METAR: EHMG 191125Z AUTO 21035KT 9999 NSC 18/16 Q1012 W///H///

Tijdstip: 13:50 (11:50 UTC)


TAF: ontbreekt

Waarnemingen en weersverwachtingen van meer dan 4000 vliegvelden (METAR en TAF).

De beschikbare stations zijn de gele en rode punten op de kaart.

Ga met uw muis naar het station om de naam te zien.

Klik dan om waarnemingen en weersverwachtingen te zien.

kaart wijzigen: klik op de groene knoppen met een zwart kruis om in te zoomen, op de groene knop met een streepje om uit te zoomen of op de groene pijlen voor aangrenzende kaarten.


METAR-TAF: